When you browse on this site, cookies collect data to enhance your experience and personalize the content and advertising you see.
Visit our Privacy Policy to learn more. By continuing to use the site, you agree to this use of cookies and data.
  • In Hungary
  • List of Countries
  • For 7 days
  • Water Temperature
  • Satellite Maps
  • Weather Map
  • News
  • Weather Widgets
  • user-avatar
    Login

    Hourly Weather Peredil's'ke

    Today, 11 December, Tuesday

    Time Temperature Precipitation Wind Pressure Humidity
    00:00 +1°C° 0.3 mm 6 mps 753 mmHg 95%
    01:00 +1°C° 0.2 mm 6 mps 753 mmHg 95%
    02:00 +1°C° 0.2 mm 5 mps 753 mmHg 96%
    03:00 +2°C° 0 mm 3 mps 752 mmHg 97%
    04:00 +1°C° 0.1 mm 4 mps 753 mmHg 97%
    05:00 +1°C° 0.1 mm 4 mps 753 mmHg 97%
    06:00 +1°C° 0.1 mm 4 mps 753 mmHg 96%
    07:00 0°C° 0 mm 4 mps 753 mmHg 97%
    08:00 0°C° 0 mm 4 mps 753 mmHg 97%
    09:00 0°C° 0 mm 4 mps 753 mmHg 97%
    10:00 0°C° 0 mm 4 mps 753 mmHg 97%
    11:00 +1°C° 0 mm 4 mps 753 mmHg 96%
    12:00 +1°C° 0 mm 5 mps 753 mmHg 96%
    13:00 +1°C° 0 mm 5 mps 753 mmHg 95%
    14:00 +1°C° 0 mm 5 mps 753 mmHg 95%
    15:00 +1°C° 0 mm 5 mps 752 mmHg 95%
    16:00 +1°C° 0.1 mm 5 mps 753 mmHg 95%
    17:00 +1°C° 0.1 mm 4 mps 753 mmHg 95%
    18:00 0°C° 0.1 mm 4 mps 753 mmHg 95%
    19:00 +1°C° 0.5 mm 5 mps 753 mmHg 95%
    20:00 +1°C° 0.5 mm 6 mps 752 mmHg 95%
    21:00 +1°C° 0.5 mm 6 mps 752 mmHg 94%
    22:00 0°C° 0.5 mm 7 mps 752 mmHg 94%
    23:00 0°C° 0.5 mm 7 mps 751 mmHg 94%

    Tomorrow, 12 December, Wednesday

    Time Temperature Precipitation Wind Pressure Humidity
    00:00 0°C° 0.5 mm 7 mps 751 mmHg 93%
    01:00 0°C° 0.1 mm 7 mps 751 mmHg 94%
    02:00 0°C° 0.1 mm 7 mps 750 mmHg 94%
    03:00 +2°C° 0.1 mm 7 mps 750 mmHg 94%
    04:00 +2°C° 0.1 mm 7 mps 750 mmHg 94%
    05:00 +2°C° 0.1 mm 7 mps 749 mmHg 93%
    06:00 +3°C° 0.1 mm 7 mps 749 mmHg 93%
    07:00 +3°C° 0.1 mm 7 mps 749 mmHg 92%
    08:00 +2°C° 0.1 mm 8 mps 749 mmHg 90%
    09:00 +2°C° 0.1 mm 8 mps 749 mmHg 89%
    10:00 +3°C° 0 mm 7 mps 749 mmHg 87%
    11:00 +3°C° 0 mm 7 mps 749 mmHg 86%
    12:00 +3°C° 0 mm 7 mps 749 mmHg 84%
    13:00 +3°C° 0.1 mm 7 mps 749 mmHg 84%
    14:00 +3°C° 0.1 mm 7 mps 750 mmHg 84%
    15:00 +2°C° 0.1 mm 6 mps 750 mmHg 84%
    16:00 +2°C° 0 mm 6 mps 750 mmHg 85%
    17:00 +2°C° 0 mm 6 mps 751 mmHg 86%
    18:00 +1°C° 0 mm 6 mps 751 mmHg 86%
    19:00 +1°C° 0 mm 5 mps 752 mmHg 87%
    20:00 +1°C° 0 mm 5 mps 752 mmHg 88%
    21:00 0°C° 0 mm 4 mps 753 mmHg 88%
    22:00 0°C° 0 mm 4 mps 753 mmHg 89%
    23:00 0°C° 0 mm 4 mps 754 mmHg 89%

    Day after tomorrow, 13 December, Thursday

    Time Temperature Precipitation Wind Pressure Humidity
    00:00 0°C° 0 mm 4 mps 754 mmHg 89%
    01:00 -1°C° 0 mm 4 mps 755 mmHg 89%
    02:00 -1°C° 0 mm 4 mps 755 mmHg 89%
    03:00 0°C° 0 mm 3 mps 756 mmHg 89%
    04:00 0°C° 0 mm 3 mps 756 mmHg 89%
    05:00 -1°C° 0 mm 3 mps 756 mmHg 89%
    06:00 -1°C° 0 mm 3 mps 756 mmHg 89%
    07:00 -1°C° 0 mm 3 mps 757 mmHg 89%
    08:00 -1°C° 0 mm 3 mps 757 mmHg 89%
    09:00 -1°C° 0 mm 3 mps 758 mmHg 89%
    10:00 0°C° 0 mm 3 mps 758 mmHg 84%
    11:00 +1°C° 0 mm 3 mps 759 mmHg 80%
    12:00 0°C° 0 mm 4 mps 759 mmHg 75%
    13:00 +1°C° 0 mm 3 mps 759 mmHg 75%
    14:00 +1°C° 0 mm 3 mps 760 mmHg 75%
    15:00 +3°C° 0 mm 2 mps 760 mmHg 76%
    16:00 +2°C° 0 mm 2 mps 761 mmHg 78%
    17:00 +1°C° 0 mm 2 mps 761 mmHg 81%
    18:00 +1°C° 0 mm 2 mps 761 mmHg 84%
    19:00 -1°C° 0 mm 2 mps 762 mmHg 84%
    20:00 -1°C° 0 mm 2 mps 762 mmHg 84%
    21:00 -1°C° 0 mm 2 mps 762 mmHg 85%
    22:00 -1°C° 0 mm 2 mps 763 mmHg 85%
    23:00 -1°C° 0 mm 2 mps 763 mmHg 85%

    14 December, Friday

    Time Temperature Precipitation Wind Pressure Humidity
    00:00 +1°C° 0 mm 1 mps 763 mmHg 85%
    01:00 +1°C° 0 mm 1 mps 763 mmHg 86%
    02:00 +1°C° 0 mm 1 mps 763 mmHg 86%
    03:00 +1°C° 0 mm 1 mps 764 mmHg 87%
    04:00 +1°C° 0 mm 1 mps 764 mmHg 87%
    05:00 +1°C° 0 mm 1 mps 764 mmHg 87%
    06:00 +1°C° 0 mm 1 mps 764 mmHg 87%
    07:00 +1°C° 0 mm 1 mps 764 mmHg 87%
    08:00 +1°C° 0 mm 1 mps 764 mmHg 86%
    09:00 +1°C° 0 mm 2 mps 764 mmHg 85%
    10:00 +1°C° 0 mm 2 mps 764 mmHg 81%
    11:00 +2°C° 0 mm 2 mps 764 mmHg 77%
    12:00 +3°C° 0 mm 2 mps 764 mmHg 73%
    13:00 +4°C° 0 mm 1 mps 764 mmHg 75%
    14:00 +4°C° 0 mm 1 mps 764 mmHg 76%
    15:00 +3°C° 0 mm 0 mps 764 mmHg 78%
    16:00 +2°C° 0 mm 0 mps 764 mmHg 81%
    17:00 +2°C° 0 mm 0 mps 765 mmHg 83%
    18:00 +1°C° 0 mm 0 mps 765 mmHg 86%
    19:00 +1°C° 0 mm 0 mps 765 mmHg 87%
    20:00 0°C° 0 mm 0 mps 765 mmHg 88%
    21:00 0°C° 0 mm 0 mps 765 mmHg 89%
    22:00 +1°C° 0 mm 1 mps 766 mmHg 89%
    23:00 +1°C° 0 mm 1 mps 766 mmHg 90%

    15 December, Saturday

    Time Temperature Precipitation Wind Pressure Humidity
    00:00 +1°C° 0 mm 1 mps 766 mmHg 91%
    01:00 +1°C° 0 mm 1 mps 766 mmHg 92%
    02:00 -1°C° 0 mm 2 mps 766 mmHg 92%
    03:00 -1°C° 0 mm 2 mps 767 mmHg 93%
    04:00 -2°C° 0 mm 2 mps 767 mmHg 93%
    05:00 -2°C° 0 mm 2 mps 767 mmHg 93%
    06:00 -2°C° 0 mm 2 mps 767 mmHg 94%
    07:00 -2°C° 0 mm 2 mps 767 mmHg 93%
    08:00 -2°C° 0 mm 2 mps 768 mmHg 93%
    09:00 -2°C° 0 mm 2 mps 768 mmHg 92%
    10:00 -1°C° 0 mm 2 mps 768 mmHg 88%
    11:00 -1°C° 0 mm 2 mps 769 mmHg 83%
    12:00 +1°C° 0 mm 2 mps 769 mmHg 78%
    13:00 0°C° 0 mm 3 mps 769 mmHg 78%
    14:00 0°C° 0 mm 3 mps 770 mmHg 78%
    15:00 0°C° 0 mm 3 mps 770 mmHg 78%
    16:00 -1°C° 0 mm 3 mps 770 mmHg 80%
    17:00 -1°C° 0 mm 3 mps 770 mmHg 82%
    18:00 -2°C° 0 mm 3 mps 771 mmHg 83%
    19:00 -2°C° 0 mm 3 mps 771 mmHg 83%
    20:00 -2°C° 0 mm 2 mps 771 mmHg 82%
    21:00 -2°C° 0 mm 2 mps 772 mmHg 81%
    22:00 -2°C° 0 mm 3 mps 772 mmHg 81%
    23:00 -2°C° 0 mm 3 mps 772 mmHg 81%

    16 December, Sunday

    Time Temperature Precipitation Wind Pressure Humidity
    00:00 -2°C° 0 mm 3 mps 772 mmHg 80%
    01:00 -4°C° 0 mm 3 mps 772 mmHg 81%
    02:00 -4°C° 0 mm 3 mps 773 mmHg 82%
    03:00 -3°C° 0 mm 2 mps 773 mmHg 82%
    04:00 -4°C° 0 mm 3 mps 773 mmHg 83%
    05:00 -5°C° 0 mm 3 mps 773 mmHg 83%
    06:00 -5°C° 0 mm 3 mps 773 mmHg 83%
    07:00 -5°C° 0 mm 3 mps 773 mmHg 83%
    08:00 -5°C° 0 mm 3 mps 773 mmHg 83%
    09:00 -5°C° 0 mm 4 mps 774 mmHg 82%
    10:00 -4°C° 0 mm 4 mps 774 mmHg 81%
    11:00 -4°C° 0 mm 4 mps 774 mmHg 79%
    12:00 -3°C° 0 mm 4 mps 774 mmHg 77%
    13:00 -3°C° 0 mm 4 mps 774 mmHg 77%
    14:00 -3°C° 0 mm 4 mps 773 mmHg 77%
    15:00 -3°C° 0 mm 4 mps 773 mmHg 77%
    16:00 -3°C° 0 mm 4 mps 773 mmHg 79%
    17:00 -4°C° 0 mm 4 mps 774 mmHg 81%
    18:00 -4°C° 0 mm 4 mps 774 mmHg 82%
    19:00 -4°C° 0 mm 4 mps 774 mmHg 82%
    20:00 -5°C° 0 mm 4 mps 774 mmHg 81%
    21:00 -5°C° 0 mm 4 mps 774 mmHg 80%
    22:00 -5°C° 0 mm 4 mps 774 mmHg 78%
    23:00 -5°C° 0 mm 4 mps 774 mmHg 76%
    Show more